User: anonymous
Location: Unspecified
(0.0000°N, 0.0000°E)
Time: 19:20:44
(UTC+02:00)
Language:

Cosmos 1437 - Orbit

View from above orbital plane
View from above orbital plane
View from above satellite
View from above satellite

Ground track
Ground track

The orbit data is extracted from the following two-line orbital elements,

1 13770U 83003A   14234.76467148  .00006334  00000-0  20533-3 0  6280
2 13770 081.1679 316.7394 0010122 244.3525 244.6665 15.31776912727760
Epoch (UTC): 22 August 2014 18:21:07
Eccentricity: 0.0010122
inclination: 81.1679°
perigee height: 463 km
apogee height: 477 km
right ascension of ascending node: 316.7394°
argument of perigee: 244.3525°
revolutions per day: 15.31776912
mean anomaly at epoch: 244.6665°
orbit number at epoch: 72776

The dashed part of the orbit path shows where the satellite is in the earth's shadow,  

DLR